Location: Unspecified
(43.3830°N, 0.0000°E)
Time: 13:19:28
(UTC+00:00)

Transit 2A - Pass Details

Date: 22 June 2019
Orbit: 595 x 964 km, 66.7° (Epoch: 22 July)

Event Time Altitude Azimuth Distance (km) Brightness Sun altitude
Exits shadow 23:55:29 49° 181° (S) 1,227 6.6 -23.2°
Maximum altitude 23:57:11 70° 117° (ESE) 1,023 6.4 -23.2°
Drops below altitude 10° 00:03:27 10° 36° (NE) 2,663 9.5 -23.2°
Sets 00:05:57 0° 34° (NE) 3,579 10.4 -23.2°
